GW2674 Weather Reports


Display with metric or nautical units.
time (UTC)temp
F
wind
direction
speed
MPH
gust
MPH
rain 1hr
in
rain 24hr
in
rain mn
in
humidity
%
barometer
mb
20260505003939 80 261 9.0 20.0 0.00 0.00 0.00 33 1011.2
20260505002434 80 261 9.0 20.0 0.00 0.00 0.00 33 1011.2
20260505000933 80 261 9.0 20.0 0.00 0.00 0.00 33 1011.2
20260504232439 79 258 9.0 20.0 0.00 0.00 0.00 33 1011.6
20260504230935 79 258 9.0 20.0 0.00 0.00 0.00 33 1011.6
20260504225433 79 258 9.0 20.0 0.00 0.00 0.00 33 1011.6
20260504223930 79 262 11.0 24.0 0.00 0.00 0.00 33 1011.6
20260504222431 78 266 13.0 30.0 0.00 0.00 0.00 34 1011.9
20260504214000 77 271 12.0 28.0 0.00 0.00 0.00 38 1011.9
20260504212455 77 271 12.0 28.0 0.00 0.00 0.00 38 1011.9
20260504210953 77 271 12.0 28.0 0.00 0.00 0.00 38 1011.9
20260504205450 77 276 12.0 30.0 0.00 0.00 0.00 39 1011.9
20260504203945 77 276 12.0 30.0 0.00 0.00 0.00 39 1011.9
20260504202441 77 276 12.0 30.0 0.00 0.00 0.00 39 1011.9
20260504200938 77 268 9.0 27.0 0.00 0.00 0.00 39 1011.9
20260504195433 76 267 10.0 21.0 0.00 0.00 0.00 39 1012.2
20260504193933 74 272 12.0 26.0 0.00 0.00 0.00 41 1012.2
20260504192432 74 272 12.0 26.0 0.00 0.00 0.00 41 1012.2
20260504190929 74 272 12.0 26.0 0.00 0.00 0.00 41 1012.2
20260504184000 72 265 6.0 13.0 0.00 0.00 0.00 42 1012.6
20260504182457 72 265 6.0 13.0 0.00 0.00 0.00 42 1012.6
20260504180956 72 265 6.0 13.0 0.00 0.00 0.00 42 1012.6
20260504175455 70 277 8.0 17.0 0.00 0.00 0.00 44 1012.9
20260504173953 70 277 8.0 17.0 0.00 0.00 0.00 44 1012.9
20260504172448 69 268 10.0 15.0 0.00 0.00 0.00 45 1012.9
20260504170945 66 228 0.0 3.0 0.00 0.00 0.00 50 1013.2
20260504151015 57 190 1.0 4.0 0.00 0.00 0.00 67 1014.0
20260504045431 64 43 1.0 4.0 0.00 0.00 0.00 56 1013.6
20260504033942 72 170 1.0 5.0 0.00 0.00 0.00 40 1012.2
20260504032439 72 170 1.0 5.0 0.00 0.00 0.00 40 1012.2
20260504030935 72 170 1.0 5.0 0.00 0.00 0.00 40 1012.2
20260504025431 74 257 1.0 6.0 0.00 0.00 0.00 37 1012.2
20260504023928 77 159 1.0 3.0 0.00 0.00 0.00 35 1011.9
20260504022428 78 218 1.0 5.0 0.00 0.00 0.00 33 1011.9
20260504012442 83 262 8.0 21.0 0.00 0.00 0.00 27 1012.2
20260504010937 83 262 8.0 21.0 0.00 0.00 0.00 27 1012.2
20260504005433 83 262 8.0 21.0 0.00 0.00 0.00 27 1012.2